Theta_e
304 303 303 303 304 303 303 303 303 302 302 296 294 297 294 290 287 301 300 302 300 293 283 285 283 279 280 285 285 286 285 282 283 283 284 283 286 284 282 280 280 280 279 279 280 281 276 279 278 280 279 279 282 285 286 287 285 287 282 287 286 290 281 279 280 282 284 285 286 285 281 284 286 284 285 285 280 284 279 278 278 276 275 273 275 273 274
303 303 303 303 303 303 303 303 303 302 301 296 296 296 292 292 290 292 299 301 302 290 280 279 280 280 278 284 283 287 284 282 281 281 282 281 281 282 281 282 284 279 282 279 278 282 274 280 280 278 281 279 286 285 286 286 283 283 280 280 284 277 278 278 274 273 275 277 280 280 283 283 278 278 283 285 286 286 284 282 281 275 276 276 273 269 270
303 303 303 303 303 303 303 303 302 302 302 299 296 293 293 293 295 292 293 297 295 284 285 282 280 278 276 278 278 281 283 284 285 283 281 284 281 281 280 282 283 282 283 277 279 281 279 274 280 281 281 281 286 285 286 285 282 286 287 287 287 280 277 275 273 269 267 268 270 273 274 277 280 281 282 284 283 283 278 276 277 272 276 277 275 271 274
303 303 303 303 303 303 303 302 302 302 302 300 299 295 294 286 280 285 287 291 291 289 290 287 282 280 278 277 278 281 277 284 285 286 279 283 282 281 281 282 284 280 281 278 276 278 281 277 273 277 277 280 282 284 286 284 283 288 290 288 286 276 276 276 275 274 272 272 275 279 281 280 275 279 280 280 282 283 283 279 276 276 277 275 278 276 274
303 303 303 302 303 303 303 302 302 302 303 300 296 296 288 291 280 280 280 286 286 285 286 284 284 279 285 276 278 276 277 280 283 286 276 283 281 281 280 280 279 278 280 277 277 277 275 280 277 276 276 279 279 284 283 283 285 288 287 287 284 277 274 275 275 276 276 278 275 279 281 278 279 279 279 280 280 280 278 275 275 278 275 273 274 276 272
303 302 302 302 302 303 303 302 302 301 302 304 299 289 290 283 283 284 282 280 277 281 280 285 282 283 283 276 281 277 276 277 274 282 282 281 281 278 276 279 280 280 279 279 274 276 274 274 274 278 278 276 279 279 282 280 283 284 282 285 282 275 272 274 274 273 277 277 278 279 279 278 278 279 278 278 279 279 275 278 279 279 273 272 277 278 276
302 302 302 302 302 302 302 302 301 302 302 304 297 290 289 287 285 285 289 281 279 281 282 286 283 281 282 278 278 276 277 275 278 278 278 280 276 279 271 276 278 279 281 280 276 276 272 272 274 275 275 277 276 275 276 279 281 281 279 281 279 277 273 275 276 273 275 276 277 278 277 276 277 278 278 279 279 278 278 278 279 279 277 279 278 278 277
302 302 302 302 302 302 302 302 301 301 302 302 292 288 287 284 285 283 286 284 282 279 280 283 282 278 282 274 274 277 277 275 278 278 277 274 277 280 276 277 278 278 278 278 276 276 277 276 273 276 276 272 275 275 275 273 277 279 277 278 279 275 273 279 275 271 270 274 277 277 277 276 274 275 277 277 278 278 278 277 278 279 278 279 278 276 275
302 302 302 302 301 302 302 301 301 300 301 292 289 286 288 288 289 286 284 279 279 280 278 278 279 277 277 276 279 279 277 276 279 277 281 277 275 277 276 278 278 279 277 276 275 277 277 277 277 278 277 272 276 274 274 277 273 276 276 276 275 277 272 274 273 269 268 275 273 274 275 274 273 273 274 275 275 274 276 275 277 277 276 277 277 275 274
302 302 301 302 301 301 302 301 300 300 300 292 289 284 290 290 291 289 285 278 281 279 281 280 280 274 275 277 276 277 277 279 278 276 281 281 280 279 278 279 278 276 275 274 275 277 278 278 279 278 279 279 278 278 278 277 275 273 275 276 272 271 272 272 271 269 267 273 274 271 270 268 265 267 273 275 275 276 277 276 277 278 277 275 271 272 274
302 302 301 301 301 301 302 301 300 299 296 289 286 285 287 286 286 287 286 279 278 278 278 277 276 276 277 275 275 277 277 277 277 274 274 280 279 281 280 278 276 274 273 276 280 280 280 280 280 280 278 278 278 279 279 279 278 277 276 272 272 273 271 271 271 267 268 267 268 269 267 263 265 276 277 277 275 276 275 275 276 278 277 275 275 274 276
301 301 301 301 301 301 301 301 300 299 297 293 292 285 286 287 286 286 283 278 276 278 277 273 273 274 275 276 276 275 275 274 276 279 275 276 278 279 278 278 278 272 278 281 281 281 281 282 280 280 280 280 279 280 280 278 277 278 278 277 272 271 271 271 270 269 268 267 265 266 260 264 275 278 279 279 278 277 276 276 277 277 276 276 275 275 275
301 301 301 300 301 301 301 301 301 300 299 295 291 284 288 288 285 285 282 280 275 277 276 273 276 276 278 275 273 273 274 276 276 277 278 277 276 278 278 277 276 277 281 279 281 279 275 271 275 275 275 277 277 277 277 277 277 278 278 279 276 271 271 272 271 272 271 268 267 260 263 270 274 277 278 278 278 276 277 275 276 277 277 277 274 275 276
301 301 301 300 300 300 301 301 300 300 299 297 291 289 289 288 285 285 282 279 276 276 277 274 274 275 278 278 276 276 275 274 275 275 273 277 276 277 279 279 278 280 280 280 278 276 271 272 268 270 268 270 269 267 273 276 277 277 277 277 279 277 273 272 270 270 265 268 268 267 271 268 270 270 274 275 274 274 273 269 273 277 278 277 275 275 275
301 301 300 300 300 300 301 301 300 300 300 299 295 291 290 288 286 285 282 283 277 278 277 276 276 276 277 276 276 274 274 274 274 274 275 277 275 278 279 280 280 278 279 278 274 273 271 271 267 267 269 267 264 264 270 266 274 277 277 277 278 277 271 273 269 268 270 267 266 266 266 263 266 274 277 279 279 279 277 273 272 277 278 279 276 275 275
301 300 300 300 300 300 300 301 300 300 300 300 296 292 290 289 289 287 284 283 280 275 276 281 281 278 275 274 277 276 275 274 274 274 273 274 276 278 278 280 280 279 278 276 273 272 271 266 265 267 265 264 263 263 264 267 267 272 277 278 277 276 277 273 270 271 269 267 263 263 262 264 274 274 276 278 279 279 279 270 268 275 277 278 276 275 275
301 301 301 299 300 300 300 300 300 300 300 299 294 292 289 291 288 284 285 284 281 277 278 282 279 281 277 273 274 274 275 275 275 274 273 273 274 275 277 279 279 279 276 273 272 272 271 268 268 269 265 261 262 264 265 265 264 267 272 274 272 271 272 272 270 267 268 267 266 264 267 266 273 276 276 277 278 279 274 263 265 274 276 277 276 275 275
303 302 301 301 300 299 300 300 300 300 300 300 296 291 289 292 290 288 287 284 279 278 280 281 279 276 276 277 276 276 278 275 275 274 275 275 274 275 275 276 275 278 273 274 273 271 268 269 267 267 267 264 265 265 264 266 263 266 267 268 267 268 268 271 267 268 270 272 266 267 269 277 276 276 277 276 279 276 264 263 271 275 275 276 276 275 275
303 302 302 301 301 300 299 299 299 300 300 299 297 295 291 291 291 291 287 284 283 278 280 283 282 280 279 279 278 279 278 277 275 276 274 273 275 274 276 273 277 273 275 272 273 270 269 265 264 266 267 264 263 264 267 265 264 268 269 264 265 264 265 269 266 265 266 267 265 266 269 276 277 276 278 278 274 263 265 272 275 276 275 275 276 275 275
303 302 302 301 301 300 300 299 300 299 299 299 297 288 290 292 292 290 286 283 283 280 279 279 281 279 280 280 276 275 275 277 277 276 276 274 274 276 274 273 275 273 273 273 270 267 268 267 266 265 267 268 265 268 265 264 271 267 266 270 268 268 264 264 264 266 268 265 264 263 262 269 278 277 275 277 270 271 273 274 275 276 276 276 275 275 275
303 303 302 301 301 301 300 300 299 300 299 299 297 292 290 293 292 291 291 287 283 279 278 283 283 282 281 279 281 281 279 276 276 276 277 275 276 275 271 270 273 274 271 271 269 268 268 267 265 266 268 268 267 266 265 264 264 269 270 270 269 273 266 266 268 272 264 264 262 265 271 275 278 277 272 275 277 275 274 276 274 275 276 275 275 275 275
303 303 303 302 301 301 301 300 300 299 300 299 297 292 287 291 292 292 292 290 284 282 280 282 284 283 284 284 284 284 282 280 277 278 277 275 275 276 274 274 273 274 272 273 270 268 269 269 268 267 265 266 266 266 264 265 264 265 264 268 266 273 272 270 267 272 270 268 271 273 274 277 279 277 275 275 276 276 276 276 276 275 274 275 275 275 276
303 303 303 302 302 301 300 300 300 300 300 299 297 292 288 289 289 292 291 284 284 286 285 281 283 284 286 287 287 286 283 284 282 281 278 278 275 276 276 275 273 275 273 273 273 273 271 269 268 269 269 269 267 265 262 265 265 265 265 270 272 272 272 269 269 271 272 275 276 276 275 276 277 278 274 275 275 276 276 275 275 276 276 276 276 275 275
303 303 303 303 302 301 301 300 300 300 301 300 298 293 290 291 291 291 288 287 284 280 282 283 280 279 280 280 282 284 284 283 284 283 283 279 277 275 276 276 274 273 273 273 273 273 271 270 268 269 265 269 268 267 264 264 265 267 267 267 269 271 272 268 267 269 270 267 274 275 276 276 277 278 277 276 276 276 275 274 276 276 276 276 276 275 274
303 304 304 303 303 302 301 301 301 300 300 300 298 297 295 290 290 290 285 281 281 281 277 278 279 282 281 283 284 283 284 286 287 285 283 281 278 277 275 275 275 275 273 273 272 274 274 269 268 268 263 269 272 267 270 267 267 272 268 269 269 270 273 269 270 268 269 271 272 271 270 273 274 278 277 276 275 274 275 276 275 275 273 275 275 275 274
304 304 304 304 303 302 302 301 301 301 300 300 298 293 290 288 290 291 288 285 284 283 278 278 279 282 283 281 280 281 284 284 284 284 284 284 283 280 278 278 276 276 274 274 274 274 273 272 271 270 268 269 273 268 267 269 267 268 267 270 273 271 272 267 270 269 272 274 275 275 273 271 273 273 274 276 277 276 273 274 274 274 275 275 274 275 275
304 304 304 304 303 302 302 301 301 301 301 301 298 296 294 291 293 290 285 284 283 279 280 278 279 278 280 280 282 282 283 283 283 282 283 282 281 280 279 276 275 275 275 275 277 274 274 272 271 268 270 269 270 268 269 268 268 266 266 272 272 271 269 272 270 267 268 270 272 273 269 270 274 275 276 276 276 277 276 275 274 274 274 274 274 274 275
303 304 304 304 304 303 302 301 301 301 301 301 299 296 293 291 291 293 292 288 283 279 280 280 279 278 280 278 283 282 282 283 282 282 281 281 281 280 279 278 276 275 274 273 271 272 271 270 269 272 273 270 268 268 270 271 269 267 269 271 274 272 273 273 271 270 271 274 275 276 276 275 275 275 276 277 277 276 276 275 275 275 275 275 275 274 273
304 304 304 304 304 303 302 302 301 301 301 300 294 291 289 291 293 294 294 292 286 284 283 283 281 277 277 277 282 280 282 282 282 281 281 280 280 280 278 278 277 277 275 275 274 273 272 272 274 272 270 271 269 267 268 265 264 266 272 274 275 276 277 276 276 276 277 274 274 275 275 274 274 274 276 276 276 276 276 276 276 276 275 275 275 275 274
304 304 304 304 304 303 303 302 302 301 301 294 289 288 286 288 293 293 294 293 288 284 280 278 276 277 277 277 276 278 279 282 281 281 280 279 279 279 279 277 276 279 276 275 275 271 273 274 274 275 274 275 270 269 267 266 266 271 275 275 276 276 277 277 278 276 275 276 276 275 275 274 275 275 275 276 276 277 276 275 275 275 275 275 274 274 274
304 304 304 304 304 303 303 302 302 302 300 291 289 285 282 280 286 295 295 293 291 285 283 281 278 281 277 277 276 276 278 280 279 279 280 279 279 278 278 279 277 280 275 276 276 276 275 271 274 274 274 275 275 268 267 266 266 268 275 276 277 276 276 277 278 278 278 277 275 274 275 275 273 275 274 273 273 275 275 275 275 276 275 274 274 274 274
303 304 304 304 304 304 303 302 302 302 296 291 288 286 286 286 287 293 295 294 291 284 280 278 277 277 278 278 276 275 279 280 280 278 279 281 276 279 278 279 275 280 280 276 278 278 276 277 274 275 273 278 276 269 269 268 268 270 275 275 276 277 277 277 277 278 278 278 276 275 275 275 275 275 274 274 275 273 275 274 275 273 274 273 271 271 270
303 303 304 304 304 303 303 303 302 301 295 296 299 296 293 293 296 295 295 291 288 285 285 281 278 279 277 276 274 276 280 279 278 279 275 279 276 278 275 277 277 277 283 279 276 274 278 277 278 275 277 279 274 273 271 270 271 275 277 276 275 276 276 277 277 277 277 277 277 274 273 274 275 276 276 275 275 275 275 274 273 272 270 268 267 268 266
303 303 303 303 303 303 303 303 302 301 299 293 289 289 292 296 295 296 293 288 286 286 285 280 277 276 277 278 275 277 280 276 275 278 274 278 277 277 276 277 279 276 279 276 278 277 277 277 275 275 278 274 276 272 268 271 275 275 276 277 277 276 275 275 276 276 276 276 276 277 277 276 273 274 274 275 274 274 274 273 271 269 267 268 268 268 267
303 303 303 303 303 303 303 302 298 295 290 290 289 290 294 296 296 296 293 287 281 280 279 280 280 276 276 275 275 276 278 276 274 277 276 273 277 275 278 274 277 273 275 281 276 276 275 275 278 273 271 275 272 269 270 273 275 276 276 276 277 277 276 275 275 276 277 276 275 275 276 275 272 270 271 271 272 271 271 269 270 270 268 267 268 267 265
302 303 303 303 302 302 299 298 294 291 289 289 288 294 297 297 296 294 292 288 286 282 278 278 279 276 278 275 275 276 280 273 272 273 273 273 273 274 274 275 270 275 277 276 273 276 274 279 275 270 275 270 269 272 273 276 275 276 276 276 276 276 276 276 276 275 274 275 274 273 272 272 273 273 272 271 271 269 269 268 266 267 268 268 268 266 264
302 302 302 302 298 293 291 290 292 292 290 291 293 297 297 294 288 287 287 286 286 287 281 280 277 277 279 279 277 275 279 272 275 273 272 272 271 273 272 272 270 275 273 272 272 272 276 281 274 271 271 269 273 278 278 278 277 276 276 276 276 276 276 276 276 274 270 269 271 272 272 272 271 272 271 271 271 269 267 268 267 267 267 267 268 266 266
302 302 297 293 291 288 287 289 289 293 297 296 295 289 287 288 282 284 283 281 284 284 281 282 277 281 283 280 277 280 278 275 276 272 271 274 270 268 272 271 271 275 268 270 271 277 274 273 272 270 271 276 278 279 279 279 279 279 278 278 277 276 276 276 275 274 271 269 268 268 266 265 268 270 270 271 270 269 270 271 270 268 268 268 268 266 264
300 295 293 291 289 286 287 287 295 297 294 292 290 285 281 283 281 278 278 280 282 278 282 280 277 281 280 279 278 281 280 275 273 274 269 276 272 267 270 265 273 273 269 270 271 277 268 269 270 270 269 273 275 277 279 279 279 279 279 279 278 278 276 276 276 275 274 274 275 274 272 271 270 270 270 270 270 270 270 269 267 266 266 266 265 263 263
293 289 289 289 288 287 291 295 297 293 290 286 286 284 279 281 277 275 282 275 275 279 281 275 281 281 282 280 278 275 281 277 272 271 273 273 279 270 273 270 273 271 266 268 270 274 267 263 268 266 268 274 276 279 278 279 278 279 279 279 279 278 278 277 276 277 277 277 277 275 274 274 273 273 271 270 269 269 267 266 267 265 264 265 264 263 263
292 289 289 288 287 288 290 292 290 288 286 283 281 280 279 276 279 279 277 274 274 275 282 280 281 279 282 282 282 278 281 281 278 278 277 272 278 276 271 267 276 269 268 267 272 269 269 265 266 266 272 279 280 275 277 277 277 278 278 278 278 279 278 277 277 276 275 276 275 275 274 272 272 271 272 270 269 269 269 268 266 265 264 262 262 263 261
292 290 289 289 289 290 289 288 286 283 283 283 278 275 277 278 279 275 277 272 274 277 278 280 276 278 278 281 281 281 277 279 277 277 275 270 278 272 270 269 272 268 266 271 272 269 267 263 265 268 275 279 279 276 276 276 276 276 276 276 277 277 277 277 276 276 275 275 275 275 274 271 270 271 271 270 269 269 268 266 265 263 263 263 262 260 260
295 292 292 288 286 285 287 282 284 283 277 276 274 272 277 273 275 273 275 278 281 280 278 281 279 285 283 286 280 281 279 281 277 275 274 272 277 273 268 268 267 264 269 270 268 266 264 264 265 272 279 277 274 275 275 277 276 275 275 275 275 276 276 276 276 276 275 274 274 275 274 271 271 271 268 269 267 264 262 263 265 263 261 260 260 259 259
291 290 286 284 283 283 285 274 284 278 276 278 275 271 274 273 275 276 274 275 278 277 279 276 278 279 276 283 277 275 277 279 280 275 273 274 271 268 268 265 267 270 270 265 264 262 265 267 271 276 276 273 273 274 273 272 273 272 273 273 272 271 273 273 274 274 273 273 273 273 271 270 267 262 262 265 267 267 263 260 259 261 260 259 258 258 257
287 285 284 282 278 283 280 272 285 277 273 276 279 276 277 274 276 277 277 280 280 278 279 279 280 280 278 278 278 278 279 274 281 274 271 272 268 270 267 267 269 267 266 264 266 264 264 266 273 275 276 278 279 279 273 272 272 273 273 269 267 269 269 271 271 272 273 272 272 271 269 268 266 263 262 263 264 265 263 260 258 259 258 258 257 256 255
285 283 282 277 274 280 278 275 279 273 279 281 279 280 280 281 280 279 281 281 279 279 278 279 280 280 277 279 277 275 276 275 273 274 273 272 267 267 270 270 268 263 265 265 262 265 269 274 277 277 279 279 279 280 279 277 276 273 272 272 271 268 267 269 270 271 272 271 269 269 269 266 265 263 261 261 261 262 262 260 259 259 257 257 256 256 254
285 285 283 281 277 280 282 275 277 279 280 281 283 284 283 283 282 282 280 281 280 281 281 281 281 280 277 275 273 274 273 275 272 274 272 268 267 269 271 266 265 265 261 264 266 268 272 276 278 280 280 279 279 278 278 277 275 273 273 274 272 269 266 267 268 269 270 269 267 267 267 265 264 263 260 258 258 259 258 258 258 257 258 259 257 255 253
281 285 285 276 275 280 277 279 283 281 282 282 282 284 284 285 281 278 279 281 281 282 279 279 277 278 276 279 277 273 272 274 271 272 272 270 271 264 264 265 264 267 267 267 271 276 277 279 279 280 281 281 281 280 278 276 275 273 273 273 272 270 266 265 266 267 267 267 266 266 266 264 263 261 260 260 258 256 256 256 256 256 257 256 255 254 253
287 285 280 279 282 281 281 284 283 280 282 281 283 284 283 282 281 280 280 282 281 280 281 280 278 278 273 276 273 272 269 275 268 269 270 268 266 264 264 260 264 265 270 271 273 277 279 279 280 279 280 280 281 280 280 279 277 274 272 272 272 272 268 266 266 266 266 266 266 265 264 263 262 261 260 259 258 256 255 254 255 255 255 255 254 253 252
284 282 284 282 281 282 284 285 283 280 283 283 282 281 283 282 280 279 282 280 281 281 280 280 281 275 274 272 268 271 268 274 271 272 267 266 267 267 266 265 270 271 273 274 274 277 278 277 278 279 279 279 278 280 279 279 274 274 274 273 272 271 269 267 265 265 266 266 265 264 263 261 261 260 260 260 260 256 253 253 253 253 253 253 253 252 251
286 285 284 287 283 282 284 278 278 279 280 281 282 282 283 282 280 277 282 281 280 279 278 276 275 271 272 270 269 267 268 274 270 269 269 268 272 268 268 270 275 277 276 278 278 279 279 280 280 280 279 279 280 280 280 280 277 275 274 272 271 270 268 265 265 265 265 265 263 260 261 261 261 261 259 257 254 251 250 250 251 252 251 251 251 251 251
284 280 281 285 286 286 285 285 285 284 284 284 283 284 285 282 280 280 283 281 280 277 276 276 273 272 269 267 272 272 272 270 267 270 269 272 273 270 272 274 277 279 278 278 278 279 279 280 281 280 281 280 279 280 280 279 278 276 274 271 269 268 266 265 264 264 264 263 262 262 261 259 258 257 256 255 255 255 254 253 250 249 250 250 249 249 249
Wind_Speed
22 24 25 24 25 26 26 27 26 23 22 6 5 5 1 5 1 1 6 6 2 3 8 6 5 4 1 3 2 3 2 4 5 7 9 5 7 3 5 5 3 4 1 1 2 4 3 6 4 3 2 4 7 9 13 14 10 5 5 6 5 5 4 6 4 2 1 1 1 1 2 1 1 5 6 7 3 1 2 2 0 1 1 3 0 1 2
22 24 23 24 25 26 26 27 26 23 17 4 5 2 2 2 3 2 6 9 2 3 4 3 3 2 1 1 2 1 2 5 6 7 8 6 6 4 4 4 6 2 1 1 4 6 3 7 5 3 5 2 6 10 12 13 8 8 3 2 6 2 3 2 3 2 1 2 2 4 3 3 3 1 3 4 3 3 1 1 1 3 1 1 1 4 2
21 23 23 24 24 25 27 27 26 23 17 6 1 3 2 2 1 2 5 10 8 5 2 4 4 2 1 1 5 4 1 3 5 4 6 5 5 4 4 3 6 3 2 3 4 7 6 2 6 4 4 2 3 7 11 11 7 6 2 5 5 5 2 2 2 3 3 1 2 1 3 2 2 1 2 4 5 4 2 1 0 2 3 3 0 1 2
20 22 22 23 24 25 26 27 26 24 17 10 1 1 1 2 2 2 3 7 6 6 4 3 1 3 1 2 2 4 2 2 5 5 1 5 4 4 4 4 5 4 7 5 8 8 8 5 1 3 3 4 2 4 8 10 10 14 8 8 3 3 2 5 4 3 4 2 2 0 2 1 2 1 4 3 3 5 1 2 1 1 1 1 1 4 8
19 20 21 22 23 25 26 27 27 25 19 8 1 1 1 1 3 3 4 1 5 4 5 4 4 1 1 3 2 5 4 4 1 7 2 4 6 2 8 6 6 5 6 3 4 5 4 5 3 6 4 2 2 2 4 8 17 18 7 12 1 3 5 7 6 8 5 4 2 3 5 3 3 2 3 4 4 2 3 2 1 1 2 2 2 7 11
18 19 20 21 22 24 26 27 27 26 22 13 3 2 3 3 1 1 1 1 3 5 3 7 4 6 5 2 1 3 4 7 3 4 3 1 6 4 1 9 9 7 3 4 3 7 3 4 6 7 5 4 7 1 2 5 13 13 4 6 4 3 3 2 3 5 5 5 5 5 4 4 2 3 3 4 4 4 1 1 2 2 1 1 3 4 4
16 17 18 20 22 23 26 28 28 27 25 15 3 2 1 3 2 1 2 1 1 3 4 6 3 5 5 2 3 3 6 5 4 2 6 3 5 8 3 9 11 11 11 4 4 8 3 5 4 5 7 7 7 6 6 3 13 11 6 5 4 2 3 1 3 5 5 5 4 4 5 3 3 1 2 2 2 3 3 1 3 2 3 4 4 5 4
15 16 17 18 20 21 23 26 28 27 26 10 6 6 1 1 0 2 2 4 2 2 3 3 1 4 4 2 2 1 3 4 2 3 5 3 5 6 5 7 6 9 12 9 6 7 6 3 3 6 7 4 6 3 4 7 10 10 6 4 8 3 2 5 3 1 3 4 4 4 4 3 2 3 2 0 1 0 0 2 0 3 1 1 7 5 3
13 14 15 17 18 20 21 23 26 27 22 4 6 2 4 1 1 1 1 3 3 1 1 3 4 2 5 3 1 2 3 3 2 3 3 5 3 4 6 6 5 6 7 9 8 7 6 5 5 5 6 3 3 2 2 4 6 10 6 4 5 7 1 1 0 2 1 3 5 3 3 2 2 4 3 2 1 1 2 2 1 3 3 3 4 5 4
11 12 13 15 16 18 19 20 23 25 21 4 3 3 1 1 1 1 1 2 2 3 3 2 1 3 2 4 3 2 2 1 2 3 3 5 4 2 3 4 4 3 8 8 5 5 4 4 3 3 3 1 3 2 3 3 4 4 4 2 4 2 1 2 2 2 1 3 3 4 4 2 3 3 1 3 3 2 3 1 2 2 1 3 4 3 1
9 10 11 13 14 16 16 18 19 22 12 7 4 3 3 2 2 2 1 3 1 2 2 4 4 0 0 3 1 2 2 2 5 1 1 2 3 3 2 3 3 3 3 2 2 2 3 3 3 1 1 2 2 2 2 5 3 3 3 1 2 1 2 2 1 2 0 3 3 2 2 2 2 2 2 1 2 3 3 2 3 1 2 1 2 5 5
8 9 10 11 12 13 15 15 16 19 14 6 2 2 2 2 2 2 2 2 0 2 4 2 1 1 2 3 3 3 3 3 4 6 2 1 2 3 4 4 2 2 0 0 1 1 2 3 3 0 1 1 2 4 6 6 4 3 3 3 1 1 1 1 0 1 0 1 2 3 1 5 1 3 1 2 1 4 4 3 4 4 6 7 6 7 8
6 6 8 9 10 12 12 13 14 14 14 6 5 2 2 1 1 2 2 3 2 1 1 2 0 0 2 1 2 1 1 1 2 4 3 2 2 2 3 2 1 1 1 1 1 2 1 1 1 1 0 0 0 4 9 9 7 6 4 5 3 3 3 1 1 1 0 1 0 1 3 1 1 1 0 3 1 2 1 2 4 6 8 8 8 7 7
3 4 6 7 8 10 9 10 12 12 13 8 4 3 2 2 2 2 2 2 2 0 3 4 1 1 1 1 3 0 0 0 1 2 1 3 3 2 2 2 0 1 0 1 0 0 0 0 0 0 1 0 1 1 1 4 7 7 8 6 6 3 1 0 1 0 1 0 0 5 1 1 1 0 2 3 2 3 3 2 4 10 7 8 8 8 6
5 2 3 5 6 7 7 8 9 11 11 10 1 2 3 4 2 2 2 0 3 0 1 1 4 4 3 2 2 2 1 0 1 1 1 1 1 2 2 1 0 0 1 0 1 1 0 0 1 2 0 1 2 2 1 2 1 4 4 4 4 5 2 1 1 0 0 1 1 2 1 3 3 2 2 3 3 4 3 2 4 5 7 7 10 10 9
5 3 3 2 4 6 6 7 8 9 11 12 1 2 2 2 2 2 1 1 1 1 1 1 3 4 4 1 1 1 1 2 1 1 0 0 0 1 1 1 0 1 0 0 0 0 0 2 0 1 1 1 1 1 2 2 1 1 3 4 2 2 2 2 1 1 1 1 2 2 2 5 2 8 4 2 1 3 2 2 7 4 8 7 11 10 9
7 7 4 0 2 3 4 4 6 7 9 10 3 2 2 3 3 2 2 1 3 1 0 0 1 3 3 2 0 1 1 0 0 1 0 0 1 0 2 1 0 1 0 0 1 0 1 1 0 0 0 2 2 1 3 1 2 3 3 0 4 4 1 0 0 1 1 1 1 4 3 4 4 6 4 4 2 3 1 4 6 3 5 6 9 9 10
12 8 6 4 3 3 3 1 3 6 7 8 3 2 1 3 2 2 1 0 2 1 2 2 1 2 1 1 2 1 1 0 0 1 0 1 1 1 0 0 0 0 3 0 0 0 1 0 1 1 1 0 0 0 1 0 1 1 1 1 1 1 2 0 2 1 4 6 3 3 4 0 5 9 7 5 3 3 1 7 6 6 5 5 7 7 8
10 9 9 8 5 4 3 2 2 3 5 7 2 1 2 2 3 2 2 1 1 1 1 2 1 1 0 0 2 2 1 2 0 0 2 1 0 0 1 1 0 0 1 0 0 1 0 0 1 0 1 1 0 3 0 0 3 1 1 1 0 2 0 1 2 1 2 3 3 5 6 6 9 4 10 6 5 1 8 4 1 10 7 5 6 8 8
12 12 11 9 8 6 1 1 1 0 2 6 4 1 1 1 1 3 1 1 1 2 2 2 2 1 2 2 2 2 2 0 2 0 2 1 0 0 1 0 0 1 1 0 0 0 0 1 1 1 1 1 2 1 0 3 1 4 2 3 2 5 4 4 3 3 0 2 0 3 5 2 10 12 3 2 3 6 3 5 2 7 8 8 6 6 7
13 13 12 11 10 9 7 5 3 3 1 2 3 1 1 2 2 1 0 0 0 2 1 1 1 0 2 1 0 1 1 2 2 1 1 2 2 2 0 2 1 1 0 0 1 1 0 0 1 1 1 1 1 1 2 0 3 3 2 2 2 3 1 2 4 5 5 4 5 8 7 5 11 15 8 9 7 4 6 7 7 4 6 8 7 6 6
14 14 14 12 10 10 9 7 7 6 5 1 2 1 1 1 1 1 2 1 2 1 0 0 0 1 1 1 1 1 2 5 3 1 1 2 1 1 1 2 0 0 0 0 1 1 0 1 1 1 1 0 2 3 1 0 3 2 2 0 1 6 6 1 2 3 4 7 6 1 2 9 11 6 1 1 5 7 8 6 9 9 6 5 7 7 7
15 14 14 14 12 11 11 9 8 7 7 6 2 0 0 0 0 0 0 4 1 2 2 0 0 0 0 1 2 2 2 2 2 1 1 1 1 1 1 2 1 0 0 0 0 0 1 2 2 0 1 3 6 2 1 3 3 2 4 7 5 1 1 2 2 5 4 9 10 3 2 5 7 6 3 4 4 5 6 6 7 7 7 8 8 6 7
15 14 15 15 14 12 12 11 10 9 9 7 4 1 0 1 1 1 1 1 1 2 1 1 1 3 4 6 3 1 1 1 2 2 3 2 2 1 1 1 1 1 0 0 1 1 1 1 1 0 1 2 2 2 4 5 8 3 1 2 3 4 3 1 3 2 2 7 1 9 10 7 7 10 5 2 5 6 6 5 6 6 7 7 6 7 6
15 14 15 16 15 15 13 12 11 10 10 10 4 1 3 1 0 0 0 1 1 1 2 2 5 1 0 1 2 1 2 1 2 3 2 1 1 1 2 1 1 1 3 3 0 0 1 1 1 1 2 4 3 5 3 3 5 5 8 5 1 4 5 3 6 4 6 8 2 0 1 2 4 9 9 8 6 6 6 6 6 5 5 6 7 7 6
16 15 15 16 16 15 14 13 12 12 10 12 7 3 2 2 3 2 0 0 0 0 1 2 1 1 1 2 1 1 1 2 3 1 1 1 2 3 7 3 1 1 3 1 1 0 2 1 1 2 2 3 1 2 3 4 3 1 4 7 3 2 5 5 5 6 9 11 17 9 3 5 6 6 6 6 8 8 6 6 6 6 6 5 5 7 7
17 16 15 15 17 16 15 13 13 12 11 12 6 3 2 2 3 5 2 1 1 1 1 3 1 0 2 2 1 1 0 2 2 3 4 2 4 4 5 5 5 2 2 1 0 0 1 1 1 4 3 3 1 2 1 4 2 4 5 7 5 5 8 3 3 5 8 13 8 6 5 9 7 11 14 11 8 9 9 6 6 6 7 6 6 5 6
17 16 16 15 17 17 15 14 13 13 11 12 6 1 1 4 4 4 2 2 2 1 0 2 1 0 1 1 3 3 2 2 3 4 4 4 4 4 5 5 5 4 3 3 1 1 1 3 4 2 0 0 1 5 3 2 1 6 12 14 13 13 16 11 12 9 13 7 8 10 10 8 5 6 8 10 8 7 9 10 10 9 9 8 7 7 5
17 17 16 16 16 17 16 15 14 13 13 10 4 2 2 4 3 5 4 3 3 0 1 1 3 1 2 1 2 3 0 1 4 4 4 4 4 4 4 5 5 4 4 2 1 2 3 3 2 2 2 2 2 3 1 4 3 12 18 6 13 19 12 15 18 13 14 3 3 5 7 8 2 4 6 7 7 9 10 8 8 9 9 8 9 9 10
17 17 17 16 16 16 17 16 15 14 13 5 3 2 2 4 7 8 7 5 4 2 1 1 2 2 2 1 2 1 1 1 3 4 5 4 4 4 5 5 3 3 2 3 3 3 3 3 2 1 1 2 2 2 2 2 5 15 8 7 15 13 14 15 12 13 12 4 4 5 5 4 2 3 6 7 7 9 9 9 9 7 7 9 9 8 8
18 17 17 16 16 17 17 18 16 16 13 6 4 2 2 4 0 5 11 6 5 3 0 0 3 1 1 1 1 1 3 3 3 4 4 3 3 3 3 3 2 3 4 3 2 4 0 3 2 2 2 3 2 2 4 2 7 9 15 12 14 13 14 16 14 14 12 8 3 1 1 4 2 1 3 5 6 8 6 5 6 8 6 7 8 8 8
17 17 17 17 16 17 18 18 18 17 10 10 8 4 2 1 2 5 10 6 5 1 2 1 2 1 2 2 1 2 2 2 2 1 1 2 1 1 1 3 2 3 3 2 3 2 7 5 4 3 4 5 5 3 4 6 13 20 19 9 6 9 11 11 10 13 10 9 6 6 9 9 7 11 9 5 7 6 8 7 7 6 7 4 2 2 3
17 17 17 16 16 18 19 18 20 14 8 9 6 5 4 4 9 11 9 6 2 0 0 0 3 0 2 2 2 3 1 3 1 2 1 1 2 2 1 1 1 2 4 4 4 5 2 5 4 7 5 7 4 3 8 16 23 32 25 1 6 7 10 10 8 9 8 9 10 13 13 11 8 9 10 7 9 9 7 7 5 5 5 5 4 3 2
18 17 17 17 18 19 19 20 20 19 12 7 6 8 4 12 13 14 9 3 2 0 1 2 2 4 2 2 0 3 6 6 4 7 3 1 2 0 2 2 3 2 4 6 2 2 2 3 6 4 3 7 6 4 11 24 30 31 19 11 11 7 5 5 6 8 10 10 10 12 11 6 3 4 6 7 6 6 7 6 6 6 6 6 7 7 6
18 17 16 17 18 18 19 19 13 9 8 6 5 3 11 18 16 18 14 5 4 2 2 3 1 2 2 1 4 3 4 2 4 7 5 1 2 1 2 3 3 4 4 3 3 5 5 5 4 3 8 4 5 11 18 26 29 14 8 13 15 13 8 10 10 13 12 8 7 9 9 6 5 5 6 6 6 6 7 7 8 9 7 8 8 6 6
18 17 16 17 18 16 10 13 8 6 6 7 4 10 21 19 18 12 10 3 3 4 4 4 4 6 5 6 5 2 5 1 2 4 3 3 0 1 1 2 3 5 1 2 4 4 6 5 5 7 7 8 17 18 25 20 16 13 12 16 13 13 15 18 16 8 8 8 9 7 8 6 10 11 8 7 7 6 8 7 6 6 9 9 9 7 6
18 17 16 15 9 4 8 5 3 6 5 5 8 16 17 12 6 4 1 1 2 1 4 4 6 7 10 5 2 2 6 5 4 3 2 3 4 1 2 1 5 1 0 4 5 6 4 6 5 7 8 15 23 22 17 17 16 18 15 11 8 9 13 12 11 8 6 7 9 9 9 10 9 7 8 8 9 8 7 10 12 11 12 13 10 8 10
18 17 10 7 5 7 5 5 4 8 22 24 19 8 0 1 4 4 2 3 2 4 5 3 9 4 3 5 6 6 5 3 4 5 2 4 4 1 1 3 4 4 7 4 6 7 2 4 6 9 16 22 28 26 20 17 16 14 14 14 13 11 12 11 10 9 10 9 8 8 7 5 8 9 10 12 9 11 14 13 10 9 9 9 9 7 5
18 10 7 5 5 6 4 1 13 24 14 4 2 3 2 2 4 4 5 3 3 8 6 7 10 9 8 8 1 1 4 7 6 4 5 7 4 2 3 3 4 3 3 1 5 11 4 5 3 5 11 22 17 31 29 16 17 18 19 15 13 12 11 12 13 18 19 19 18 16 18 17 17 17 13 12 10 9 9 8 7 8 10 9 7 6 7
8 9 8 6 7 2 6 15 23 13 4 3 1 3 4 4 6 5 4 4 4 3 5 11 8 10 13 15 9 8 3 6 8 8 5 2 2 4 2 1 2 3 5 5 4 4 3 3 4 2 15 20 24 18 6 14 17 20 18 18 15 15 14 15 14 15 18 18 15 12 12 13 12 12 12 13 12 11 9 9 9 8 7 9 7 9 10
8 2 4 6 3 4 5 8 3 3 3 4 2 2 2 6 5 2 3 9 6 4 5 4 7 9 8 9 9 10 3 3 2 3 4 4 2 4 3 3 2 2 5 6 1 3 2 3 4 8 16 24 11 5 7 7 14 16 15 14 15 16 17 17 17 16 15 16 13 12 11 12 12 12 10 12 12 12 12 12 11 11 9 8 10 9 5
5 4 4 8 4 6 5 2 2 3 0 2 4 6 5 3 3 5 5 8 9 4 6 9 9 13 12 16 12 5 1 1 2 2 3 3 3 4 2 1 2 5 7 2 4 2 3 5 6 9 21 26 10 4 6 8 9 11 13 12 14 15 14 16 17 16 15 17 15 13 11 9 11 10 10 10 11 11 9 9 9 9 11 8 5 6 7
24 17 11 5 2 3 2 3 4 3 4 4 4 6 5 7 9 8 4 3 2 5 4 4 1 5 3 7 2 2 3 3 3 1 2 3 2 2 3 2 1 6 5 2 2 3 7 10 9 21 18 4 3 7 8 11 9 8 10 10 11 12 13 14 16 17 15 15 15 14 12 11 12 11 8 9 9 8 6 7 11 10 8 8 8 8 8
13 9 6 2 3 4 3 8 4 3 7 5 8 15 13 6 9 8 6 6 5 4 6 11 10 14 9 4 7 3 3 2 2 2 0 0 3 3 2 5 6 1 4 2 3 9 10 8 19 18 1 1 3 5 4 4 5 5 7 9 7 6 8 9 9 9 11 11 11 11 8 9 9 5 5 8 11 14 9 5 5 8 9 8 8 8 7
10 6 5 4 5 4 5 6 4 7 16 18 10 12 11 19 11 10 12 4 6 9 8 8 11 10 10 4 4 1 3 4 3 3 4 4 3 3 4 5 2 2 4 6 5 5 2 16 13 4 17 21 20 12 4 5 5 9 8 4 6 8 8 10 11 10 11 12 13 11 10 10 9 9 9 9 7 8 13 11 9 10 10 10 9 8 7
12 13 11 7 8 7 7 6 4 9 12 9 12 16 11 8 6 10 4 6 7 11 13 12 10 10 10 4 7 6 4 4 4 4 3 2 4 7 3 1 2 2 4 4 8 15 20 21 7 11 17 17 17 13 9 10 10 6 6 10 12 11 11 11 11 12 13 11 9 10 11 9 10 10 10 8 8 7 7 9 11 12 11 11 11 11 9
4 3 4 3 6 7 4 12 18 12 1 3 9 7 10 10 4 7 6 8 13 12 12 9 8 9 13 8 4 2 2 3 5 3 5 3 6 1 2 4 6 7 7 14 15 14 15 15 13 10 6 8 7 6 7 8 7 10 13 13 9 11 11 11 11 12 11 9 9 10 10 11 10 8 8 8 6 6 7 9 10 10 13 13 10 9 9
9 2 5 7 9 10 22 19 6 2 0 4 4 7 6 7 8 6 5 8 12 13 15 12 8 4 3 2 5 3 4 2 3 3 4 2 2 1 2 4 8 6 8 10 18 15 13 9 5 7 9 9 9 9 8 8 9 12 13 13 13 12 11 13 13 13 11 13 15 14 12 10 11 12 13 13 10 7 8 9 10 9 8 9 9 10 10
3 7 10 7 6 7 14 18 14 14 12 5 7 8 9 12 10 9 9 10 14 14 17 13 8 7 3 3 5 4 4 5 5 5 4 3 7 8 8 9 9 14 15 10 14 15 7 1 4 6 8 9 9 9 10 9 10 11 13 14 15 15 13 14 16 14 12 11 11 12 12 11 11 10 9 10 12 10 8 8 10 9 9 12 12 11 9
5 4 3 8 9 14 13 6 11 17 18 13 8 9 10 10 10 10 11 13 12 13 4 8 4 6 3 5 3 3 4 4 4 2 6 12 8 4 3 14 15 14 5 8 13 13 5 2 3 4 8 10 10 10 10 9 9 10 11 12 11 9 11 14 13 11 13 13 13 12 11 11 11 12 15 16 11 11 10 9 9 10 8 8 11 11 11
2 5 10 11 19 21 13 18 20 22 20 14 15 12 10 11 12 11 8 12 13 12 8 8 5 5 4 2 3 5 5 5 4 11 10 10 7 8 14 22 22 3 2 4 8 10 10 10 9 8 8 9 10 10 9 10 10 11 11 10 10 9 7 9 10 11 12 11 11 12 14 13 11 10 7 10 14 15 11 7 7 8 9 8 7 10 10
6 9 15 20 21 14 7 6 11 18 16 10 12 11 11 11 10 11 11 15 15 17 15 6 7 5 4 10 7 4 2 2 8 4 9 13 7 10 17 20 16 4 2 3 5 6 7 8 11 13 12 11 10 10 10 9 9 9 9 10 9 10 10 10 10 11 10 10 13 14 12 10 11 11 12 12 11 14 16 13 9 8 8 7 7 7 7
Wind_Direction
353 354 354 353 351 350 349 349 350 354 354 2 356 302 347 19 16 98 345 331 31 52 80 67 50 60 35 281 312 336 12 359 335 5 357 4 345 0 29 16 10 75 64 292 37 350 53 346 58 65 92 45 9 340 346 343 360 335 4 335 22 328 70 66 72 72 34 337 339 311 167 82 42 23 18 25 51 342 78 95 151 126 24 40 355 224 153
354 354 354 354 352 351 348 348 350 352 5 352 306 298 36 356 349 347 355 344 280 52 70 65 72 104 244 73 59 143 44 8 2 20 6 18 347 1 16 348 14 317 16 0 41 338 137 12 30 51 13 59 354 355 355 0 15 13 350 346 320 52 342 70 123 65 31 359 15 7 345 47 55 37 358 10 38 47 147 72 310 56 262 174 120 227 189
356 355 354 354 353 351 349 348 348 350 355 8 349 16 330 285 236 53 353 15 38 74 344 97 100 81 109 83 26 17 49 17 24 16 14 1 9 343 8 2 319 356 334 30 19 33 44 146 24 20 33 24 1 355 358 4 14 2 299 279 293 60 347 16 90 114 120 129 149 127 46 56 59 15 23 23 46 21 43 21 57 108 326 58 216 129 38
357 357 355 355 354 352 350 348 348 348 351 354 257 329 306 357 342 350 39 10 37 63 34 63 138 131 164 61 355 25 23 29 40 9 59 12 2 46 332 339 319 4 350 25 26 18 21 73 338 29 350 345 336 8 343 17 5 347 339 340 338 90 25 42 42 81 105 97 99 262 273 278 62 58 53 39 5 14 23 75 64 107 19 2 30 130 150
359 358 357 357 356 354 350 348 348 347 345 1 26 19 69 28 55 336 357 330 73 82 30 30 12 58 287 80 340 18 33 334 38 11 35 1 357 13 35 5 15 346 1 7 26 25 10 15 83 11 6 309 284 276 36 14 10 349 348 342 66 95 65 8 40 53 65 68 59 342 9 66 68 92 73 59 44 350 40 84 180 236 69 272 33 140 143
360 359 358 358 358 357 352 348 349 348 343 330 286 56 348 79 100 23 167 336 349 343 16 10 37 38 60 83 346 36 31 31 23 337 354 311 2 0 20 22 20 0 347 295 24 345 45 35 12 338 2 328 342 344 357 64 1 358 9 349 57 68 91 327 54 62 59 34 35 17 40 47 37 38 46 38 33 25 60 68 71 28 137 205 186 176 161
0 360 360 1 1 360 355 350 349 351 344 334 282 99 36 89 125 82 276 81 351 2 300 322 43 44 60 86 42 46 49 54 50 24 321 6 11 11 53 8 12 12 357 26 63 358 7 6 43 25 330 23 348 9 336 359 11 0 8 19 29 70 71 24 85 96 61 32 16 18 43 12 7 11 40 32 37 32 35 13 37 47 92 135 118 71 48
360 1 1 3 4 4 0 353 351 352 347 335 60 32 85 67 91 116 45 91 109 350 344 317 357 39 356 76 325 55 57 59 27 26 13 16 13 354 59 3 27 32 29 29 65 30 37 12 356 0 339 352 30 34 97 305 332 4 18 355 341 76 28 11 335 62 29 10 11 25 20 27 6 306 274 208 161 248 277 18 12 59 320 131 111 119 100
357 1 2 4 7 8 5 359 355 354 349 41 35 47 14 68 116 136 120 84 339 308 317 341 4 41 357 44 6 67 26 79 39 85 28 53 32 16 9 357 339 58 49 45 50 11 9 11 17 0 2 19 4 345 322 1 327 353 9 10 344 37 122 325 80 61 13 358 12 332 4 348 287 288 295 260 194 243 224 181 235 159 213 159 156 160 168
356 359 4 4 9 11 9 6 0 360 350 42 24 48 295 253 163 153 177 100 310 7 309 319 278 41 5 6 13 359 36 62 317 122 74 91 67 38 351 328 305 57 37 37 15 343 333 335 338 343 335 313 328 30 332 9 6 345 4 325 50 37 52 31 16 51 4 297 338 329 324 351 354 332 26 320 252 133 48 24 7 63 104 122 169 223 137
354 357 3 4 9 13 13 12 7 6 7 36 19 19 0 355 347 279 252 104 43 26 305 43 46 55 354 3 14 345 33 11 353 34 131 61 49 17 328 354 357 75 40 354 332 296 307 305 302 256 212 335 46 28 47 61 27 14 1 345 356 26 34 87 91 94 261 294 316 331 20 23 247 230 229 264 320 171 166 224 185 135 69 154 138 158 156
348 355 358 2 7 14 17 18 14 11 13 3 30 76 2 310 269 244 285 91 83 55 75 82 33 359 35 18 3 22 20 15 7 343 82 90 61 49 21 18 350 104 296 301 302 328 277 274 257 282 122 165 112 83 60 56 41 25 6 35 315 10 353 90 122 75 22 299 4 38 5 243 225 238 222 303 319 58 94 33 102 124 118 129 120 134 149
328 348 352 358 2 11 20 21 22 14 10 12 29 46 3 32 272 302 322 68 79 2 94 119 120 1 105 104 50 31 359 331 334 351 28 17 60 46 23 34 62 152 44 302 310 275 336 68 84 70 53 342 26 88 55 44 30 11 11 4 17 15 27 333 46 30 2 31 4 92 249 222 246 191 52 294 19 41 55 276 196 184 172 160 153 163 157
320 335 347 351 358 7 25 23 23 21 12 5 38 18 349 348 334 334 357 83 87 57 121 117 144 122 161 68 98 146 200 7 328 350 24 343 10 63 64 36 167 304 136 278 201 231 74 242 321 321 299 214 320 345 20 83 37 17 6 359 350 348 282 63 123 70 126 292 212 222 204 356 19 280 221 196 185 185 170 218 252 194 184 167 155 153 150
273 280 319 342 349 356 25 25 20 18 14 3 19 36 23 2 16 321 288 336 120 83 258 159 153 147 135 121 169 173 216 170 221 59 358 310 318 25 32 108 23 313 276 214 160 143 106 325 20 345 298 30 356 299 346 335 18 29 357 342 343 348 70 327 93 288 131 103 337 332 347 286 259 206 58 70 83 95 106 101 282 191 184 162 148 159 158
264 257 233 284 340 335 10 31 19 15 12 2 8 88 65 3 283 237 271 39 148 168 202 43 112 138 138 143 98 318 224 203 159 128 219 95 142 115 47 65 11 306 325 326 350 71 94 84 241 6 296 303 250 343 312 341 323 330 25 337 341 304 320 322 76 139 86 112 143 214 213 244 184 172 187 163 216 149 161 72 271 198 168 156 147 155 164
236 241 259 258 284 323 339 27 21 10 8 14 14 46 31 26 6 356 358 13 61 111 24 329 101 127 112 92 68 213 246 277 120 239 196 165 152 147 121 61 18 294 334 1 198 141 121 83 62 130 117 159 99 240 286 6 333 335 352 339 47 19 340 324 25 281 204 171 198 247 224 260 201 150 167 179 172 95 69 15 281 209 161 148 150 160 165
258 249 238 251 233 251 331 39 24 4 3 12 15 68 39 14 24 307 257 318 102 107 166 202 172 179 198 154 150 155 95 191 290 190 97 170 176 174 179 179 274 219 100 315 278 3 63 153 170 196 228 284 249 46 232 85 249 252 5 16 0 12 327 74 217 206 219 203 267 314 291 349 142 157 157 172 134 107 114 204 237 179 155 158 149 156 168
247 236 232 227 236 231 226 250 302 355 356 359 333 190 111 36 359 325 266 307 310 186 134 74 33 63 203 155 69 113 98 130 99 276 147 157 224 106 97 233 136 296 167 220 315 338 160 257 321 151 174 236 149 189 310 130 223 56 93 61 15 318 30 313 65 239 200 200 177 237 254 219 156 153 153 161 94 151 208 244 195 146 154 163 157 159 169
245 237 239 241 232 232 219 236 220 208 28 354 348 100 135 62 61 50 29 42 66 87 180 183 180 188 187 194 163 166 138 262 190 232 311 235 269 174 43 15 261 66 313 194 326 246 130 186 193 128 272 160 205 146 55 247 133 167 191 216 190 192 144 209 188 222 145 52 69 349 297 273 131 133 107 202 150 227 172 129 101 142 158 158 173 173 180
242 234 235 240 237 239 225 228 200 163 232 320 359 319 120 138 75 53 178 292 112 111 191 105 79 203 167 242 58 107 127 153 155 163 95 103 160 146 167 209 173 172 208 132 203 226 195 157 197 193 209 102 215 76 215 345 287 287 134 195 245 180 110 210 225 183 151 166 182 207 211 153 162 151 180 204 204 156 162 137 149 187 162 177 167 197 186
237 239 238 232 230 232 222 212 215 204 182 175 8 281 213 136 158 153 295 23 61 63 117 115 65 115 64 92 70 109 134 145 167 148 141 127 234 199 146 141 194 126 174 92 81 358 341 100 23 79 164 142 18 207 222 191 268 266 341 59 293 221 195 209 194 221 173 203 221 221 194 171 189 180 115 159 152 155 169 157 163 167 194 178 175 195 196
235 236 236 231 228 228 229 224 221 201 189 188 202 294 354 119 101 108 191 74 83 103 168 153 102 203 14 209 136 149 144 153 133 163 146 135 121 210 192 177 187 117 109 118 172 223 153 147 202 175 319 182 178 197 300 188 265 163 189 225 234 327 158 186 75 273 287 271 237 204 164 195 219 233 171 137 157 196 165 152 154 188 181 177 185 189 187
235 232 233 231 228 222 225 223 221 205 191 178 188 250 87 53 56 324 264 147 140 142 156 152 102 245 207 228 173 188 133 196 190 148 155 129 135 129 21 42 133 65 311 218 166 130 127 77 193 11 218 252 94 210 185 247 222 204 287 279 250 220 137 119 188 267 56 275 255 209 221 188 207 222 218 169 171 188 176 178 177 180 178 182 185 182 181
228 228 231 229 222 221 221 220 220 214 207 187 156 73 78 42 179 170 108 135 206 157 270 187 230 180 303 8 93 122 226 137 119 141 162 131 129 136 183 178 166 153 198 175 156 75 103 114 335 127 191 263 127 253 195 203 282 146 211 233 173 294 159 168 222 213 202 237 118 296 341 200 213 198 207 215 209 199 193 193 187 180 181 172 187 170 181
226 226 226 226 222 219 220 218 215 215 208 180 176 154 184 173 133 110 67 21 330 142 222 253 227 293 163 86 231 182 60 131 158 130 143 127 130 131 142 134 75 53 95 128 125 156 183 231 170 202 153 276 92 225 242 204 221 287 203 234 169 168 114 221 165 202 255 284 270 242 290 283 255 249 240 215 195 199 207 199 189 182 187 191 184 172 181
225 223 220 220 220 217 217 217 217 215 207 180 191 205 196 139 176 160 171 181 128 312 167 254 151 210 133 224 144 104 183 176 164 155 124 111 107 106 119 128 121 131 115 93 178 334 300 218 152 224 182 232 87 243 10 314 292 258 255 215 138 113 217 185 114 241 246 230 240 136 212 257 235 220 220 219 202 187 197 194 201 197 198 193 192 205 188
220 217 216 214 216 215 211 209 212 212 202 178 190 148 52 154 206 211 194 144 162 188 342 337 107 224 107 283 169 140 143 189 179 154 147 150 145 140 140 151 140 133 161 124 195 209 203 189 237 219 230 87 77 281 186 256 16 277 246 233 173 201 213 175 213 195 248 223 209 184 208 234 209 198 212 208 199 179 184 194 205 208 204 195 192 202 206
218 216 214 211 212 211 209 202 204 207 199 182 87 66 298 238 225 198 179 148 111 135 283 140 69 80 228 224 104 121 76 208 176 164 148 153 157 161 158 167 168 168 158 181 199 203 194 224 200 183 197 204 118 262 66 250 202 243 243 182 179 222 204 200 215 221 245 153 176 179 191 214 211 153 168 191 188 186 206 206 199 197 196 197 199 202 202
220 218 214 209 206 203 204 202 198 202 191 128 93 68 298 269 193 198 178 160 156 141 143 201 268 257 55 86 150 85 127 206 180 156 154 154 169 169 182 164 201 203 178 179 165 224 223 242 219 196 122 134 153 260 231 243 235 257 251 177 209 213 219 223 219 212 235 191 203 199 205 214 192 159 171 182 180 179 195 202 202 197 196 184 195 208 206
217 213 212 207 202 200 197 199 193 193 163 139 125 181 203 272 267 177 170 154 155 126 224 115 230 120 184 33 114 170 162 167 158 161 163 170 170 181 184 148 247 178 210 201 209 229 110 238 142 216 96 195 155 238 238 243 273 289 258 187 209 203 209 223 220 231 241 243 202 160 181 219 194 91 246 202 187 176 183 190 192 183 186 181 195 198 206
214 211 208 205 199 196 197 194 194 184 164 169 187 184 192 201 190 145 148 144 117 71 137 130 297 237 252 150 357 289 279 158 112 121 118 149 159 161 57 177 218 177 206 206 224 246 226 219 206 183 135 189 179 263 239 237 249 254 253 124 227 199 216 220 218 227 227 228 227 266 255 236 195 202 231 179 199 194 187 190 187 186 188 178 151 134 144
212 211 206 204 199 195 197 195 193 181 178 190 201 107 121 131 127 133 144 114 68 155 311 208 230 221 248 209 82 292 175 82 61 121 171 186 171 122 190 120 351 341 233 219 211 220 200 192 192 231 196 140 201 232 239 234 236 239 245 210 243 206 213 218 218 225 215 213 186 209 228 221 217 208 217 193 189 196 196 196 192 137 125 135 160 159 134
209 207 206 203 204 203 201 198 199 191 174 173 217 208 168 137 142 146 125 103 107 77 59 197 211 205 231 92 223 191 176 159 172 159 167 69 337 281 169 113 184 197 220 192 224 182 215 173 202 208 132 208 197 262 249 244 236 246 256 240 234 231 219 229 218 220 217 215 208 211 221 214 175 176 188 201 199 191 181 170 142 152 177 181 202 203 191
203 203 202 206 207 209 208 203 201 198 198 200 224 189 158 154 155 161 157 138 124 205 169 243 212 234 191 215 233 197 179 157 168 191 175 99 355 184 161 157 177 195 258 132 253 193 214 210 128 184 221 137 200 232 243 249 251 242 238 242 229 221 237 255 250 228 227 215 207 215 215 200 175 185 197 197 188 166 153 168 172 167 184 207 208 206 181
202 197 201 204 206 206 212 207 200 189 205 207 199 140 156 165 165 171 175 162 150 171 169 214 177 216 180 238 210 174 143 86 39 56 53 115 98 44 322 185 237 222 96 226 245 174 203 140 141 242 158 187 232 217 236 236 255 255 225 233 226 194 213 215 228 227 225 218 215 215 208 205 206 219 210 200 191 186 181 177 195 186 199 208 215 201 187
195 193 195 198 195 207 208 209 150 196 228 119 136 149 136 98 15 37 14 342 280 95 189 180 208 197 188 225 62 188 153 188 160 99 157 160 160 133 116 220 229 166 189 233 216 206 205 149 221 232 198 215 242 237 241 251 240 246 239 227 225 207 221 228 225 222 226 223 219 218 211 212 220 219 220 212 206 190 181 203 199 190 205 218 217 196 203
187 190 190 192 188 208 206 187 189 133 113 116 112 84 323 148 155 165 220 211 216 144 236 180 233 169 161 209 241 152 160 184 122 148 158 180 110 205 233 224 233 187 240 227 240 147 134 196 233 226 251 242 252 267 250 236 239 246 255 248 231 215 213 214 201 196 209 232 243 226 236 239 235 229 213 225 208 199 207 213 208 205 213 217 214 197 172
190 190 194 187 195 214 174 167 130 120 114 135 76 106 174 195 164 208 200 159 185 215 184 198 206 163 196 208 175 157 196 151 172 173 170 198 137 234 149 188 241 170 259 233 257 135 202 217 223 260 258 258 250 248 247 243 251 247 243 239 232 224 210 213 197 199 205 214 213 200 192 199 209 222 212 219 222 217 218 214 208 204 205 209 197 180 181
176 195 189 175 199 157 107 136 127 108 133 162 240 156 222 171 188 223 119 187 219 205 161 222 179 189 193 205 176 209 160 158 172 193 175 173 180 168 185 120 238 131 229 203 219 126 174 233 206 221 266 260 250 257 222 212 223 238 237 241 235 230 219 215 214 213 217 225 221 214 205 213 206 206 200 205 208 213 215 212 210 202 193 202 186 178 192
175 136 162 184 119 121 139 137 97 87 130 168 207 243 189 217 197 198 168 223 194 212 167 166 137 177 190 204 202 212 142 87 46 81 123 198 155 83 129 180 172 193 240 210 195 117 206 235 212 213 247 257 256 111 178 187 214 233 232 229 227 230 224 221 220 214 213 225 225 221 211 200 202 207 201 194 194 205 208 201 198 198 192 184 186 196 164
152 134 94 85 95 96 104 130 163 132 179 199 211 227 197 241 122 219 198 179 205 166 206 161 182 170 191 189 195 135 73 132 114 148 116 204 195 136 195 236 257 212 246 195 117 176 174 233 225 242 240 253 264 196 178 208 221 220 229 217 223 226 222 219 221 219 209 215 219 218 214 200 200 201 197 189 193 197 194 188 193 190 192 191 163 144 155
106 107 101 95 90 169 172 174 213 159 190 195 186 237 178 208 206 163 200 216 237 167 195 81 81 101 41 115 52 26 145 146 140 152 134 186 98 84 128 213 165 248 224 99 158 194 211 223 234 237 249 296 152 191 202 215 218 217 220 220 219 221 215 217 216 219 212 211 216 216 210 199 205 206 186 181 170 165 173 181 184 179 171 162 167 161 159
121 111 104 177 117 240 167 217 171 136 228 198 185 218 188 193 218 166 198 189 151 135 174 143 164 143 170 173 139 143 119 153 155 91 342 68 113 177 165 221 219 270 53 290 211 220 228 241 232 244 294 305 220 197 208 213 218 224 240 239 233 222 218 220 219 216 217 209 215 214 199 196 193 167 157 177 176 181 173 156 159 153 151 146 152 162 158
139 151 128 143 185 192 149 238 154 197 220 217 199 228 193 210 207 152 209 136 149 160 134 139 152 156 142 130 75 144 140 153 133 142 205 136 192 193 183 235 156 137 191 237 229 248 262 249 238 189 252 255 257 243 206 214 201 211 224 223 214 215 207 207 210 207 212 201 206 192 194 189 174 181 184 185 189 170 160 165 157 145 151 153 152 151 163
175 171 156 161 186 199 185 232 178 228 235 213 207 217 212 216 166 185 154 112 122 133 150 157 155 138 132 176 143 169 127 141 143 204 139 169 158 219 195 55 82 179 242 224 230 230 228 243 231 219 234 241 251 255 241 232 225 216 198 227 223 208 209 204 207 204 207 201 192 185 194 175 182 174 186 184 168 163 164 150 155 155 150 149 163 166 165
144 169 163 159 198 209 179 223 217 211 141 113 214 206 199 209 168 141 155 139 142 154 139 152 135 157 149 169 113 78 121 170 160 180 107 177 202 249 82 151 222 194 198 233 227 235 246 244 237 238 200 209 220 225 215 220 210 209 218 228 220 208 204 205 206 205 206 183 182 189 189 186 184 169 143 150 174 160 148 146 154 154 158 166 160 148 150
182 165 142 185 200 199 211 223 199 32 204 163 165 163 179 143 133 147 169 145 142 140 140 133 128 104 60 342 75 137 141 165 122 230 169 188 69 57 221 230 235 217 214 221 234 232 237 246 221 212 203 197 204 215 215 218 220 216 223 226 225 212 201 201 207 208 188 182 188 192 190 179 170 168 174 172 156 158 152 155 151 150 137 125 136 146 152
205 177 182 207 216 217 221 222 210 231 226 170 160 159 157 165 178 147 154 141 145 156 155 147 157 123 158 131 127 141 203 195 167 203 102 215 196 204 172 230 215 232 231 201 239 245 245 232 187 171 178 185 194 201 215 215 212 216 217 221 222 217 203 201 208 203 192 191 187 183 185 176 165 163 156 150 161 170 163 149 149 147 148 147 150 152 155
187 251 242 214 222 241 222 178 196 229 230 204 166 180 174 168 157 167 155 143 152 133 104 43 47 85 155 118 166 179 208 198 177 172 183 217 204 203 200 249 235 227 215 158 221 241 229 190 149 168 188 186 191 192 207 217 208 216 222 223 224 211 204 203 202 191 191 192 187 184 167 153 166 170 172 177 166 141 144 152 153 151 152 153 149 154 161
232 225 237 225 219 222 181 200 200 217 222 198 193 193 174 187 162 164 175 137 144 145 161 164 160 122 137 102 164 194 222 143 175 217 206 208 183 189 219 231 240 195 180 186 194 212 216 212 203 215 198 201 201 202 207 213 209 215 219 218 217 212 209 196 197 190 192 186 173 157 166 178 174 154 132 113 121 121 98 105 154 159 157 157 158 159 162
178 206 220 224 230 243 259 260 226 230 229 193 181 185 173 190 157 160 159 146 159 166 183 150 126 142 163 198 199 141 79 162 229 172 223 230 172 199 224 229 244 238 232 209 219 204 206 204 205 209 209 207 206 206 208 210 213 217 211 210 204 201 198 190 189 189 182 173 173 173 161 140 129 128 128 126 122 130 147 169 175 168 162 160 169 166 160